,,PA_Meas_PMT16A,,PR_Meas_QMR101_102,,RH_Meas_QMH101,,SR_Meas_QMS101,,TA_Meas_QMH101,,GenWind,,GenWind,
time,status,PA,status,PR,status,RH,status,SR,status,TA,status,DirAvg,status,SpdAvg,
2010-09-20, 00:00:04,VALID,916.908,VALID,0,VALID,97.3358,VALID,0,VALID,20.4813,VALID,348,VALID,0.464063,
2010-09-20, 00:01:04,VALID,916.893,VALID,0,VALID,97.3129,VALID,0,VALID,20.4618,VALID,348,VALID,0.957812,
2010-09-20, 00:02:04,VALID,916.871,VALID,0,VALID,97.3358,VALID,0,VALID,20.4618,VALID,348,VALID,0.693359,
2010-09-20, 00:03:04,VALID,916.881,VALID,0,VALID,97.3281,VALID,0,VALID,20.4603,VALID,348,VALID,0.660937,
2010-09-20, 00:04:04,VALID,916.869,VALID,0,VALID,97.3358,VALID,0,VALID,20.4618,VALID,348,VALID,0.717578,
2010-09-20, 00:05:04,VALID,916.853,VALID,0,VALID,97.3586,VALID,0,VALID,20.4213,VALID,348,VALID,1.01523,
2010-09-20, 00:06:04,VALID,916.822,VALID,0,VALID,97.3205,VALID,0,VALID,20.4423,VALID,348,VALID,0.767578,
2010-09-20, 00:07:04,VALID,916.847,VALID,0,VALID,97.3358,VALID,0,VALID,20.4408,VALID,348,VALID,0.436719,
2010-09-20, 00:08:04,VALID,916.848,VALID,0,VALID,97.3358,VALID,0,VALID,20.4618,VALID,348,VALID,0.624609,
2010-09-20, 00:09:04,VALID,916.847,VALID,0,VALID,97.351,VALID,0,VALID,20.4603,VALID,348,VALID,0.253516,
2010-09-20, 00:10:04,VALID,916.861,VALID,0,VALID,97.3663,VALID,0,VALID,20.4798,VALID,348,VALID,0.278906,
2010-09-20, 00:11:04,VALID,916.832,VALID,0,VALID,97.3205,VALID,0,VALID,20.5204,VALID,348,VALID,0.505078,
2010-09-20, 00:12:04,VALID,916.856,VALID,0,VALID,97.3205,VALID,0,VALID,20.4993,VALID,348,VALID,0.769531,
2010-09-20, 00:13:04,VALID,916.871,VALID,0,VALID,97.3205,VALID,0,VALID,20.5594,VALID,348,VALID,0.327734,
2010-09-20, 00:14:04,VALID,916.87,VALID,0,VALID,97.3281,VALID,0,VALID,20.5578,VALID,348,VALID,0.780859,
2010-09-20, 00:15:04,VALID,916.854,VALID,0,VALID,97.3129,VALID,0,VALID,20.5594,VALID,348,VALID,0.716797,
2010-09-20, 00:16:04,VALID,916.844,VALID,0,VALID,97.3358,VALID,0,VALID,20.4993,VALID,348,VALID,0.65625,
2010-09-20, 00:17:04,VALID,916.829,VALID,0,VALID,97.3358,VALID,0,VALID,20.5009,VALID,348,VALID,0.412109,
2010-09-20, 00:18:04,VALID,916.832,VALID,0,VALID,97.3205,VALID,0,VALID,20.5204,VALID,348,VALID,0.848437,
2010-09-20, 00:19:04,VALID,916.823,VALID,0,VALID,97.3358,VALID,0,VALID,20.4993,VALID,348,VALID,0.419141,
2010-09-20, 00:20:04,VALID,916.85,VALID,0,VALID,97.3358,VALID,0,VALID,20.5204,VALID,348,VALID,0.701953,
2010-09-20, 00:21:04,VALID,916.84,VALID,0,VALID,97.3358,VALID,0.107441,VALID,20.5383,VALID,348,VALID,0.726563,
2010-09-20, 00:22:04,VALID,916.821,VALID,0,VALID,97.3358,VALID,0,VALID,20.5188,VALID,356,VALID,0.833594,
2010-09-20, 00:23:04,VALID,916.812,VALID,0,VALID,97.3358,VALID,0,VALID,20.5204,VALID,16,VALID,0.820313,
2010-09-20, 00:24:04,VALID,916.81,VALID,0,VALID,97.3281,VALID,0,VALID,20.4993,VALID,16,VALID,0.985937,
2010-09-20, 00:25:04,VALID,916.814,VALID,0,VALID,97.3281,VALID,0,VALID,20.4798,VALID,16,VALID,0.401953,
2010-09-20, 00:26:04,VALID,916.809,VALID,0,VALID,97.3281,VALID,0,VALID,20.4813,VALID,16,VALID,0.40625,
2010-09-20, 00:27:04,VALID,916.801,VALID,0,VALID,97.3281,VALID,0,VALID,20.4618,VALID,16,VALID,0.885547,
2010-09-20, 00:28:04,VALID,916.809,VALID,0,VALID,97.3358,VALID,0,VALID,20.4408,VALID,16,VALID,0.770703,
2010-09-20, 00:29:04,VALID,916.823,VALID,0,VALID,97.3358,VALID,0,VALID,20.4603,VALID,16,VALID,0.699219,
2010-09-20, 00:30:04,VALID,916.787,VALID,0,VALID,97.3358,VALID,0,VALID,20.4423,VALID,16,VALID,0.819531,
2010-09-20, 00:31:04,VALID,916.775,VALID,0,VALID,97.3358,VALID,0,VALID,20.4228,VALID,16,VALID,0.602734,
2010-09-20, 00:32:04,VALID,916.751,VALID,0,VALID,97.3358,VALID,0,VALID,20.4018,VALID,15,VALID,0.503125,
2010-09-20, 00:33:04,VALID,916.717,VALID,0,VALID,97.3358,VALID,0.107441,VALID,20.4213,VALID,16,VALID,0.00429688,
2010-09-20, 00:34:04,VALID,916.731,VALID,0,VALID,97.3281,VALID,0,VALID,20.3823,VALID,15,VALID,0.621875,
2010-09-20, 00:35:04,VALID,916.715,VALID,0,VALID,97.3434,VALID,0,VALID,20.3628,VALID,15,VALID,0.540625,
2010-09-20, 00:36:04,VALID,916.705,VALID,0,VALID,97.3663,VALID,0,VALID,20.4018,VALID,15,VALID,0.10625,
2010-09-20, 00:37:04,VALID,916.656,VALID,0,VALID,97.3358,VALID,0,VALID,20.3838,VALID,15,VALID,0.445313,
2010-09-20, 00:38:04,VALID,916.691,VALID,0,VALID,97.351,VALID,0,VALID,20.3838,VALID,15,VALID,0.0515625,
2010-09-20, 00:39:04,VALID,916.658,VALID,0,VALID,97.3358,VALID,0,VALID,20.3628,VALID,15,VALID,0,
2010-09-20, 00:40:04,VALID,916.683,VALID,0,VALID,97.3358,VALID,0,VALID,20.3838,VALID,15,VALID,0.0476562,
2010-09-20, 00:41:04,VALID,916.662,VALID,0,VALID,97.3358,VALID,0,VALID,20.3823,VALID,15,VALID,0.00117188,
2010-09-20, 00:42:04,VALID,916.65,VALID,0,VALID,97.3434,VALID,0,VALID,20.3643,VALID,15,VALID,0,
2010-09-20, 00:43:04,VALID,916.674,VALID,0,VALID,97.3586,VALID,0,VALID,20.3838,VALID,15,VALID,0,
2010-09-20, 00:44:04,VALID,916.671,VALID,0,VALID,97.3434,VALID,0,VALID,20.3838,VALID,16,VALID,0.292578,
2010-09-20, 00:45:04,VALID,916.661,VALID,0,VALID,97.3434,VALID,0,VALID,20.4049,VALID,16,VALID,0.509375,
2010-09-20, 00:46:04,VALID,916.636,VALID,0,VALID,97.3739,VALID,0,VALID,20.3643,VALID,15,VALID,0.375,
2010-09-20, 00:47:04,VALID,916.617,VALID,0,VALID,97.3663,VALID,0,VALID,20.3448,VALID,16,VALID,0.485547,
2010-09-20, 00:48:04,VALID,916.625,VALID,0,VALID,97.3434,VALID,0,VALID,20.3253,VALID,15,VALID,0.322656,
2010-09-20, 00:49:04,VALID,916.602,VALID,0,VALID,97.3586,VALID,0,VALID,20.3253,VALID,15,VALID,0.371094,
2010-09-20, 00:50:04,VALID,916.599,VALID,0,VALID,97.351,VALID,0,VALID,20.3448,VALID,15,VALID,0,
2010-09-20, 00:51:04,VALID,916.615,VALID,0,VALID,97.3663,VALID,0,VALID,20.2863,VALID,15,VALID,0.292188,
2010-09-20, 00:52:04,VALID,916.603,VALID,0,VALID,97.3739,VALID,0,VALID,20.3074,VALID,15,VALID,0.287109,
2010-09-20, 00:53:04,VALID,916.591,VALID,0,VALID,97.3663,VALID,0,VALID,20.2863,VALID,15,VALID,0.535547,
2010-09-20, 00:54:04,VALID,916.565,VALID,0,VALID,97.3663,VALID,0,VALID,20.2684,VALID,15,VALID,0.557031,
2010-09-20, 00:55:04,VALID,916.609,VALID,0,VALID,97.3663,VALID,0,VALID,20.1888,VALID,15,VALID,0.515625,
2010-09-20, 00:56:04,VALID,916.589,VALID,0,VALID,97.351,VALID,0,VALID,20.1888,VALID,16,VALID,0.408203,
2010-09-20, 00:57:04,VALID,916.573,VALID,0,VALID,97.3739,VALID,0,VALID,20.1888,VALID,15,VALID,0.276563,
2010-09-20, 00:58:04,VALID,916.558,VALID,0,VALID,97.3739,VALID,0,VALID,20.1888,VALID,15,VALID,0,
2010-09-20, 00:59:04,VALID,916.577,VALID,0,VALID,97.3739,VALID,0,VALID,20.2489,VALID,15,VALID,0,
2010-09-20, 01:00:04,VALID,916.57,VALID,0,VALID,97.3815,VALID,0,VALID,20.2879,VALID,15,VALID,0,
2010-09-20, 01:01:04,VALID,916.567,VALID,0,VALID,97.3968,VALID,0,VALID,20.2668,VALID,15,VALID,0,
2010-09-20, 01:02:04,VALID,916.543,VALID,0,VALID,97.3815,VALID,0,VALID,20.2863,VALID,15,VALID,0.003125,
2010-09-20, 01:03:04,VALID,916.525,VALID,0,VALID,97.3891,VALID,0,VALID,20.3074,VALID,15,VALID,0,
2010-09-20, 01:04:04,VALID,916.478,VALID,0,VALID,97.3891,VALID,0,VALID,20.3074,VALID,15,VALID,0,
2010-09-20, 01:05:04,VALID,916.487,VALID,0,VALID,97.3968,VALID,0,VALID,20.3074,VALID,15,VALID,0.196094,
2010-09-20, 01:06:04,VALID,916.472,VALID,0,VALID,97.3968,VALID,0,VALID,20.3074,VALID,15,VALID,0,
2010-09-20, 01:07:04,VALID,916.459,VALID,0,VALID,97.3739,VALID,0,VALID,20.3074,VALID,15,VALID,0,
2010-09-20, 01:08:04,VALID,916.447,VALID,0,VALID,97.3891,VALID,0,VALID,20.3058,VALID,15,VALID,0.271875,
2010-09-20, 01:09:04,VALID,916.429,VALID,0,VALID,97.3891,VALID,0,VALID,20.3464,VALID,15,VALID,0.194531,
2010-09-20, 01:10:04,VALID,916.44,VALID,0,VALID,97.3739,VALID,0,VALID,20.3464,VALID,15,VALID,0.0933594,
2010-09-20, 01:11:04,VALID,916.425,VALID,0,VALID,97.3891,VALID,0,VALID,20.3269,VALID,15,VALID,0.274219,
2010-09-20, 01:12:04,VALID,916.398,VALID,0,VALID,97.3891,VALID,0,VALID,20.2668,VALID,15,VALID,0.48125,
2010-09-20, 01:13:04,VALID,916.38,VALID,0,VALID,97.3815,VALID,0,VALID,20.2278,VALID,15,VALID,0.824219,
2010-09-20, 01:14:04,VALID,916.349,VALID,0,VALID,97.3739,VALID,0,VALID,20.1873,VALID,15,VALID,1.02969,
2010-09-20, 01:15:04,VALID,916.335,VALID,0,VALID,97.3739,VALID,0,VALID,20.1693,VALID,15,VALID,0.596094,
2010-09-20, 01:16:04,VALID,916.336,VALID,0,VALID,97.3739,VALID,0,VALID,20.2068,VALID,15,VALID,0.65625,
2010-09-20, 01:17:04,VALID,916.318,VALID,0,VALID,97.3739,VALID,0,VALID,20.2083,VALID,15,VALID,0.5875,
2010-09-20, 01:18:04,VALID,916.285,VALID,0,VALID,97.3891,VALID,0,VALID,20.1873,VALID,15,VALID,0.945703,
2010-09-20, 01:19:04,VALID,916.254,VALID,0,VALID,97.4196,VALID,0,VALID,20.1693,VALID,15,VALID,1.01211,
2010-09-20, 01:20:04,VALID,916.242,VALID,0,VALID,97.3891,VALID,0,VALID,20.1498,VALID,15,VALID,0.952344,
2010-09-20, 01:21:04,VALID,916.259,VALID,0,VALID,97.3815,VALID,0,VALID,20.1498,VALID,15,VALID,1.11953,
2010-09-20, 01:22:04,VALID,916.232,VALID,0,VALID,97.3891,VALID,0,VALID,20.1498,VALID,15,VALID,1.00781,
2010-09-20, 01:23:04,VALID,916.188,VALID,0,VALID,97.3891,VALID,0,VALID,20.1498,VALID,14,VALID,1.28516,
2010-09-20, 01:24:04,VALID,916.238,VALID,0,VALID,97.3891,VALID,0.107441,VALID,20.1693,VALID,14,VALID,1.16953,
2010-09-20, 01:25:04,VALID,916.218,VALID,0,VALID,97.3891,VALID,0,VALID,20.1288,VALID,2,VALID,1.23477,
2010-09-20, 01:26:04,VALID,916.189,VALID,0,VALID,97.4044,VALID,0,VALID,20.1693,VALID,357,VALID,0.805859,
2010-09-20, 01:27:04,VALID,916.173,VALID,0,VALID,97.412,VALID,0,VALID,20.1693,VALID,357,VALID,0.6,
2010-09-20, 01:28:04,VALID,916.152,VALID,0,VALID,97.3968,VALID,0,VALID,20.1693,VALID,357,VALID,0.408594,
2010-09-20, 01:29:04,VALID,916.148,VALID,0,VALID,97.4044,VALID,0,VALID,20.1693,VALID,357,VALID,0.409375,
2010-09-20, 01:30:04,VALID,916.166,VALID,0,VALID,97.3968,VALID,0,VALID,20.1693,VALID,357,VALID,0.249609,
2010-09-20, 01:31:04,VALID,916.131,VALID,0,VALID,97.3968,VALID,0,VALID,20.1888,VALID,357,VALID,0.789453,
2010-09-20, 01:32:04,VALID,916.086,VALID,0,VALID,97.3891,VALID,0,VALID,20.1498,VALID,357,VALID,0.649609,
2010-09-20, 01:33:04,VALID,916.111,VALID,0,VALID,97.3891,VALID,0,VALID,20.1693,VALID,357,VALID,0.601563,
2010-09-20, 01:34:04,VALID,916.063,VALID,0,VALID,97.4044,VALID,0,VALID,20.1888,VALID,357,VALID,0.771484,
2010-09-20, 01:35:04,VALID,916.073,VALID,0,VALID,97.3968,VALID,0,VALID,20.1693,VALID,357,VALID,0.891797,
2010-09-20, 01:36:04,VALID,916.02,VALID,0,VALID,97.3891,VALID,0,VALID,20.1693,VALID,357,VALID,0.897266,
2010-09-20, 01:37:04,VALID,915.982,VALID,0,VALID,97.3891,VALID,0,VALID,20.1693,VALID,357,VALID,0.557422,
2010-09-20, 01:38:04,VALID,915.969,VALID,0,VALID,97.4273,VALID,0,VALID,20.1693,VALID,357,VALID,0.448047,
2010-09-20, 01:39:04,VALID,915.939,VALID,0,VALID,97.3968,VALID,0,VALID,20.1888,VALID,357,VALID,0.660547,
2010-09-20, 01:40:04,VALID,915.932,VALID,0,VALID,97.4196,VALID,0,VALID,20.1693,VALID,357,VALID,0.767969,
2010-09-20, 01:41:04,VALID,915.945,VALID,0,VALID,97.4044,VALID,0,VALID,20.1498,VALID,358,VALID,1.29453,
2010-09-20, 01:42:04,VALID,915.937,VALID,0,VALID,97.412,VALID,0,VALID,20.1498,VALID,358,VALID,0.805469,
2010-09-20, 01:43:04,VALID,915.941,VALID,0,VALID,97.4196,VALID,0,VALID,20.1303,VALID,359,VALID,0.790234,
2010-09-20, 01:44:04,VALID,915.943,VALID,0,VALID,97.412,VALID,0,VALID,20.1693,VALID,359,VALID,0.879297,
2010-09-20, 01:45:04,VALID,915.943,VALID,0,VALID,97.412,VALID,0,VALID,20.1708,VALID,359,VALID,0.834375,
2010-09-20, 01:46:04,VALID,915.936,VALID,0,VALID,97.412,VALID,0,VALID,20.1303,VALID,359,VALID,0.873438,
2010-09-20, 01:47:04,VALID,915.904,VALID,0,VALID,97.4044,VALID,0,VALID,20.1498,VALID,359,VALID,0.354688,
2010-09-20, 01:48:04,VALID,915.914,VALID,0,VALID,97.4044,VALID,0.107441,VALID,20.1303,VALID,359,VALID,0.664063,
2010-09-20, 01:49:04,VALID,915.885,VALID,0,VALID,97.3968,VALID,0,VALID,20.1303,VALID,359,VALID,0.344922,
2010-09-20, 01:50:04,VALID,915.905,VALID,0,VALID,97.412,VALID,0,VALID,20.1513,VALID,359,VALID,0.403516,
2010-09-20, 01:51:04,VALID,915.856,VALID,0,VALID,97.3968,VALID,0,VALID,20.1498,VALID,359,VALID,0.459375,
2010-09-20, 01:52:04,VALID,915.877,VALID,0,VALID,97.412,VALID,0,VALID,20.1303,VALID,359,VALID,0.0558594,
2010-09-20, 01:53:04,VALID,915.852,VALID,0,VALID,97.4196,VALID,0,VALID,20.1303,VALID,359,VALID,0.199219,
2010-09-20, 01:54:04,VALID,915.861,VALID,0,VALID,97.3891,VALID,0,VALID,20.1303,VALID,359,VALID,0.4125,
2010-09-20, 01:55:04,VALID,915.809,VALID,0,VALID,97.412,VALID,0,VALID,20.1288,VALID,359,VALID,0.489844,
2010-09-20, 01:56:04,VALID,915.798,VALID,0,VALID,97.412,VALID,0,VALID,20.1693,VALID,359,VALID,0.330859,
2010-09-20, 01:57:04,VALID,915.792,VALID,0,VALID,97.412,VALID,0,VALID,20.1498,VALID,359,VALID,0.236719,
2010-09-20, 01:58:04,VALID,915.76,VALID,0,VALID,97.412,VALID,0,VALID,20.1498,VALID,359,VALID,0.320703,
2010-09-20, 01:59:04,VALID,915.793,VALID,0,VALID,97.4044,VALID,0,VALID,20.1498,VALID,359,VALID,0.0621094,
2010-09-20, 02:00:04,VALID,915.789,VALID,0,VALID,97.412,VALID,0,VALID,20.1498,VALID,359,VALID,0,
2010-09-20, 02:01:04,VALID,915.783,VALID,0,VALID,97.4273,VALID,0,VALID,20.1303,VALID,359,VALID,0.0746094,
2010-09-20, 02:02:04,VALID,915.78,VALID,0,VALID,97.4273,VALID,0,VALID,20.1693,VALID,359,VALID,0.078125,
2010-09-20, 02:03:04,VALID,915.809,VALID,0,VALID,97.4196,VALID,0,VALID,20.1708,VALID,359,VALID,0.405859,
2010-09-20, 02:04:04,VALID,915.791,VALID,0,VALID,97.4044,VALID,0,VALID,20.1498,VALID,359,VALID,0.350781,
2010-09-20, 02:05:04,VALID,915.808,VALID,0,VALID,97.412,VALID,0,VALID,20.1303,VALID,359,VALID,0.595703,
2010-09-20, 02:06:04,VALID,915.776,VALID,0,VALID,97.3968,VALID,0,VALID,20.1303,VALID,359,VALID,0.357812,
2010-09-20, 02:07:04,VALID,915.746,VALID,0,VALID,97.4196,VALID,0,VALID,20.1108,VALID,359,VALID,0,
2010-09-20, 02:08:04,VALID,915.748,VALID,0,VALID,97.412,VALID,0,VALID,20.1108,VALID,359,VALID,0,
2010-09-20, 02:09:04,VALID,915.731,VALID,0,VALID,97.412,VALID,0,VALID,20.1303,VALID,359,VALID,0,
2010-09-20, 02:10:04,VALID,915.669,VALID,0,VALID,97.4273,VALID,0,VALID,20.1303,VALID,359,VALID,0,
2010-09-20, 02:11:04,VALID,915.688,VALID,0,VALID,97.4044,VALID,0,VALID,20.1498,VALID,359,VALID,0,
2010-09-20, 02:12:04,VALID,915.673,VALID,0,VALID,97.4273,VALID,0,VALID,20.1498,VALID,359,VALID,0.141797,
2010-09-20, 02:13:04,VALID,915.643,VALID,0,VALID,97.4196,VALID,0,VALID,20.1693,VALID,359,VALID,0,
2010-09-20, 02:14:04,VALID,915.652,VALID,0,VALID,97.412,VALID,0,VALID,20.1693,VALID,359,VALID,0,
2010-09-20, 02:15:04,VALID,915.597,VALID,0,VALID,97.412,VALID,0,VALID,20.1693,VALID,359,VALID,0,
2010-09-20, 02:16:04,VALID,915.582,VALID,0,VALID,97.4273,VALID,0,VALID,20.1303,VALID,359,VALID,0.00234375,
2010-09-20, 02:17:05,VALID,915.578,VALID,0,VALID,97.4349,VALID,0,VALID,20.0913,VALID,359,VALID,0.391016,
2010-09-20, 02:18:05,VALID,915.571,VALID,0,VALID,97.4196,VALID,0,VALID,20.0523,VALID,359,VALID,0.514453,
2010-09-20, 02:19:05,VALID,915.553,VALID,0,VALID,97.4196,VALID,0,VALID,20.0523,VALID,359,VALID,0.566406,
2010-09-20, 02:20:05,VALID,915.547,VALID,0,VALID,97.4349,VALID,0,VALID,20.0328,VALID,359,VALID,0.667188,
2010-09-20, 02:21:05,VALID,915.492,VALID,0,VALID,97.4349,VALID,0,VALID,20.0133,VALID,359,VALID,0.660547,
2010-09-20, 02:22:05,VALID,915.53,VALID,0,VALID,97.4349,VALID,0,VALID,19.9548,VALID,359,VALID,0.290625,
2010-09-20, 02:23:05,VALID,915.472,VALID,0,VALID,97.4577,VALID,0,VALID,19.9353,VALID,359,VALID,0.341797,
2010-09-20, 02:24:05,VALID,915.474,VALID,0,VALID,97.4273,VALID,0,VALID,19.8963,VALID,359,VALID,0.420312,
2010-09-20, 02:25:05,VALID,915.444,VALID,0,VALID,97.4501,VALID,0,VALID,19.8768,VALID,359,VALID,0.382813,
2010-09-20, 02:26:05,VALID,915.422,VALID,0,VALID,97.4577,VALID,0,VALID,19.8378,VALID,359,VALID,0.475391,
2010-09-20, 02:27:05,VALID,915.444,VALID,0,VALID,97.4349,VALID,0,VALID,19.7973,VALID,359,VALID,0.526172,
2010-09-20, 02:28:05,VALID,915.385,VALID,0,VALID,97.4654,VALID,0,VALID,19.7793,VALID,359,VALID,0.567187,
2010-09-20, 02:29:05,VALID,915.367,VALID,0,VALID,97.4577,VALID,0,VALID,19.8588,VALID,359,VALID,0.761328,
2010-09-20, 02:30:05,VALID,915.358,VALID,0,VALID,97.473,VALID,0,VALID,19.7793,VALID,359,VALID,0.675781,
2010-09-20, 02:31:05,VALID,915.368,VALID,0,VALID,97.473,VALID,0,VALID,19.7403,VALID,359,VALID,0.9875,
2010-09-20, 02:32:05,VALID,915.333,VALID,0,VALID,97.473,VALID,0,VALID,19.7208,VALID,359,VALID,0.984375,
2010-09-20, 02:33:05,VALID,915.314,VALID,0,VALID,97.4882,VALID,0,VALID,19.7208,VALID,359,VALID,0.909375,
2010-09-20, 02:34:05,VALID,915.252,VALID,0,VALID,97.473,VALID,0,VALID,19.7013,VALID,359,VALID,0.590625,
2010-09-20, 02:35:05,VALID,915.228,VALID,0,VALID,97.473,VALID,0,VALID,19.7013,VALID,360,VALID,0.725,
2010-09-20, 02:36:05,VALID,915.208,VALID,0,VALID,97.4654,VALID,0,VALID,19.6818,VALID,360,VALID,0.936328,
2010-09-20, 02:37:05,VALID,915.213,VALID,0,VALID,97.4882,VALID,0,VALID,19.6623,VALID,360,VALID,0.855078,
2010-09-20, 02:38:05,VALID,915.183,VALID,0,VALID,97.4959,VALID,0,VALID,19.6233,VALID,360,VALID,0.883984,
2010-09-20, 02:39:05,VALID,915.16,VALID,0,VALID,97.4882,VALID,0,VALID,19.6233,VALID,360,VALID,1.16797,
2010-09-20, 02:40:05,VALID,915.154,VALID,0,VALID,97.4959,VALID,0,VALID,19.6038,VALID,1,VALID,1.05313,
2010-09-20, 02:41:05,VALID,915.109,VALID,0,VALID,97.5035,VALID,0,VALID,19.6038,VALID,1,VALID,1.0207,
2010-09-20, 02:42:05,VALID,915.085,VALID,0,VALID,97.5111,VALID,0,VALID,19.6233,VALID,2,VALID,1.19766,
2010-09-20, 02:43:05,VALID,915.063,VALID,0,VALID,97.5264,VALID,0.107441,VALID,19.6038,VALID,2,VALID,0.802734,
2010-09-20, 02:44:05,VALID,915.059,VALID,0,VALID,97.5187,VALID,0,VALID,19.6233,VALID,2,VALID,0.848828,
2010-09-20, 02:45:05,VALID,915.011,VALID,0,VALID,97.5035,VALID,0,VALID,19.6233,VALID,2,VALID,0.644141,
2010-09-20, 02:46:05,VALID,914.978,VALID,0,VALID,97.5111,VALID,0,VALID,19.6233,VALID,2,VALID,0.795313,
2010-09-20, 02:47:05,VALID,914.953,VALID,0,VALID,97.5111,VALID,0,VALID,19.6428,VALID,2,VALID,1.09102,
2010-09-20, 02:48:05,VALID,914.966,VALID,0,VALID,97.5111,VALID,0,VALID,19.6623,VALID,3,VALID,0.921094,
2010-09-20, 02:49:05,VALID,914.956,VALID,0,VALID,97.5264,VALID,0,VALID,19.6428,VALID,3,VALID,0.559375,
2010-09-20, 02:50:05,VALID,914.915,VALID,0,VALID,97.5111,VALID,0,VALID,19.6428,VALID,3,VALID,0.662891,
2010-09-20, 02:51:05,VALID,914.906,VALID,0,VALID,97.5035,VALID,0,VALID,19.6038,VALID,3,VALID,0.693359,
2010-09-20, 02:52:05,VALID,914.889,VALID,0,VALID,97.5187,VALID,0,VALID,19.5633,VALID,3,VALID,0.9,
2010-09-20, 02:53:05,VALID,914.892,VALID,0,VALID,97.5187,VALID,0.107441,VALID,19.5843,VALID,3,VALID,0.704687,
2010-09-20, 02:54:05,VALID,914.843,VALID,0,VALID,97.5264,VALID,0,VALID,19.5843,VALID,3,VALID,0.731641,
2010-09-20, 02:55:05,VALID,914.845,VALID,0,VALID,97.5264,VALID,0,VALID,19.5453,VALID,3,VALID,0.75,
2010-09-20, 02:56:05,VALID,914.855,VALID,0,VALID,97.5111,VALID,0.107441,VALID,19.5648,VALID,3,VALID,0.457422,
2010-09-20, 02:57:05,VALID,914.855,VALID,0,VALID,97.534,VALID,0,VALID,19.5648,VALID,3,VALID,0.576953,
2010-09-20, 02:58:05,VALID,914.859,VALID,0,VALID,97.5416,VALID,0,VALID,19.5468,VALID,3,VALID,0.762891,
2010-09-20, 02:59:05,VALID,914.872,VALID,0,VALID,97.5035,VALID,0,VALID,19.5063,VALID,3,VALID,0.764453,
2010-09-20, 03:00:05,VALID,914.902,VALID,0,VALID,97.5264,VALID,0.107441,VALID,19.5063,VALID,3,VALID,0.809766,
2010-09-20, 03:01:05,VALID,914.916,VALID,0,VALID,97.5264,VALID,0,VALID,19.5273,VALID,3,VALID,0.769531,
2010-09-20, 03:02:05,VALID,914.91,VALID,0,VALID,97.5492,VALID,0,VALID,19.4868,VALID,3,VALID,0.690234,
2010-09-20, 03:03:05,VALID,914.923,VALID,0,VALID,97.5416,VALID,0.107441,VALID,19.4868,VALID,3,VALID,0.370313,
2010-09-20, 03:04:05,VALID,914.934,VALID,0,VALID,97.5492,VALID,0,VALID,19.5273,VALID,3,VALID,0.767969,
2010-09-20, 03:05:05,VALID,914.931,VALID,0,VALID,97.5264,VALID,0,VALID,19.5273,VALID,3,VALID,0.641797,
2010-09-20, 03:06:05,VALID,914.966,VALID,0,VALID,97.5264,VALID,0.107441,VALID,19.5063,VALID,3,VALID,0.569922,
2010-09-20, 03:07:05,VALID,914.975,VALID,0,VALID,97.534,VALID,0,VALID,19.5063,VALID,3,VALID,0.623828,
2010-09-20, 03:08:05,VALID,914.981,VALID,0,VALID,97.5264,VALID,0,VALID,19.5468,VALID,3,VALID,0.608203,
2010-09-20, 03:09:05,VALID,914.961,VALID,0,VALID,97.5416,VALID,0,VALID,19.5453,VALID,3,VALID,0.491797,
2010-09-20, 03:10:05,VALID,914.982,VALID,0,VALID,97.534,VALID,0,VALID,19.5663,VALID,3,VALID,0.662891,
2010-09-20, 03:11:05,VALID,914.964,VALID,0,VALID,97.5416,VALID,0,VALID,19.5663,VALID,3,VALID,0.600391,
2010-09-20, 03:12:05,VALID,914.989,VALID,0,VALID,97.534,VALID,0.107441,VALID,19.5453,VALID,3,VALID,0.599219,
2010-09-20, 03:13:05,VALID,914.988,VALID,0,VALID,97.534,VALID,0,VALID,19.5258,VALID,3,VALID,0.330859,
2010-09-20, 03:14:05,VALID,915.008,VALID,0,VALID,97.5264,VALID,0,VALID,19.5063,VALID,3,VALID,0.108984,
2010-09-20, 03:15:05,VALID,915.019,VALID,0,VALID,97.5492,VALID,0,VALID,19.5063,VALID,3,VALID,0,
2010-09-20, 03:16:05,VALID,915.038,VALID,0,VALID,97.5492,VALID,0,VALID,19.4673,VALID,3,VALID,0,
2010-09-20, 03:17:05,VALID,915.06,VALID,0,VALID,97.5416,VALID,0,VALID,19.4868,VALID,3,VALID,0,
2010-09-20, 03:18:05,VALID,915.046,VALID,0,VALID,97.5569,VALID,0,VALID,19.5078,VALID,3,VALID,0,
2010-09-20, 03:19:05,VALID,915.036,VALID,0,VALID,97.5416,VALID,0,VALID,19.4673,VALID,3,VALID,0.313672,
2010-09-20, 03:20:05,VALID,915.047,VALID,0,VALID,97.5569,VALID,0,VALID,19.4283,VALID,3,VALID,0.351172,
2010-09-20, 03:21:05,VALID,915.017,VALID,0,VALID,97.5569,VALID,0,VALID,19.4673,VALID,3,VALID,0.548828,
2010-09-20, 03:22:05,VALID,915.032,VALID,0,VALID,97.5645,VALID,0,VALID,19.4883,VALID,3,VALID,0.483594,
2010-09-20, 03:23:05,VALID,915.038,VALID,0,VALID,97.5569,VALID,0,VALID,19.4883,VALID,3,VALID,0.446484,
2010-09-20, 03:24:05,VALID,915.03,VALID,0,VALID,97.5492,VALID,0,VALID,19.4868,VALID,3,VALID,0.363281,
2010-09-20, 03:25:05,VALID,915.08,VALID,0,VALID,97.5797,VALID,0,VALID,19.5078,VALID,3,VALID,0.195313,
2010-09-20, 03:26:05,VALID,915.107,VALID,0,VALID,97.5492,VALID,0,VALID,19.5258,VALID,3,VALID,0.107422,
2010-09-20, 03:27:05,VALID,915.065,VALID,0,VALID,97.5645,VALID,0,VALID,19.5858,VALID,3,VALID,0.0695312,
2010-09-20, 03:28:05,VALID,915.132,VALID,0,VALID,97.5645,VALID,0,VALID,19.5843,VALID,3,VALID,0.277734,
2010-09-20, 03:29:05,VALID,915.126,VALID,0,VALID,97.5416,VALID,0,VALID,19.6053,VALID,3,VALID,0.423438,
2010-09-20, 03:30:05,VALID,915.17,VALID,0,VALID,97.5264,VALID,0,VALID,19.6038,VALID,3,VALID,0.114063,
2010-09-20, 03:31:05,VALID,915.184,VALID,0,VALID,97.5492,VALID,0,VALID,19.6428,VALID,3,VALID,0.401172,
2010-09-20, 03:32:05,VALID,915.22,VALID,0,VALID,97.5492,VALID,0,VALID,19.6833,VALID,3,VALID,0.655859,
2010-09-20, 03:33:05,VALID,915.221,VALID,0,VALID,97.5569,VALID,0,VALID,19.6623,VALID,3,VALID,0.371484,
2010-09-20, 03:34:05,VALID,915.249,VALID,0,VALID,97.5416,VALID,0,VALID,19.6428,VALID,3,VALID,0.392188,
2010-09-20, 03:35:05,VALID,915.266,VALID,0,VALID,97.5416,VALID,0,VALID,19.6233,VALID,3,VALID,0.440234,
2010-09-20, 03:36:05,VALID,915.279,VALID,0,VALID,97.5492,VALID,0,VALID,19.6638,VALID,3,VALID,0.460938,
2010-09-20, 03:37:05,VALID,915.27,VALID,0,VALID,97.5416,VALID,0,VALID,19.6233,VALID,3,VALID,0.115234,
2010-09-20, 03:38:05,VALID,915.299,VALID,0,VALID,97.5416,VALID,0,VALID,19.6038,VALID,3,VALID,0.117578,
2010-09-20, 03:39:05,VALID,915.314,VALID,0,VALID,97.5569,VALID,0,VALID,19.6248,VALID,3,VALID,0.351953,
2010-09-20, 03:40:05,VALID,915.304,VALID,0,VALID,97.5416,VALID,0,VALID,19.5648,VALID,3,VALID,0.154297,
2010-09-20, 03:41:05,VALID,915.326,VALID,0,VALID,97.5569,VALID,0,VALID,19.5648,VALID,3,VALID,0.00234375,
2010-09-20, 03:42:05,VALID,915.329,VALID,0,VALID,97.5416,VALID,0,VALID,19.5648,VALID,3,VALID,0.205859,
2010-09-20, 03:43:05,VALID,915.356,VALID,0,VALID,97.5416,VALID,0,VALID,19.5453,VALID,3,VALID,0.346484,
2010-09-20, 03:44:05,VALID,915.365,VALID,0,VALID,97.5492,VALID,0,VALID,19.5258,VALID,3,VALID,0.383203,
2010-09-20, 03:45:05,VALID,915.396,VALID,0,VALID,97.534,VALID,0,VALID,19.5453,VALID,3,VALID,0.028125,
2010-09-20, 03:46:05,VALID,915.426,VALID,0,VALID,97.5492,VALID,0,VALID,19.5663,VALID,3,VALID,0.233984,
2010-09-20, 03:47:05,VALID,915.408,VALID,0,VALID,97.5645,VALID,0,VALID,19.5663,VALID,3,VALID,0.545313,